Weather History for Memphis, TN

Change the Weather History Date:

Sunday, February 9, 2014

  Actual Average Record
Temperature  
Mean Temperature 36 °F 44 °F  
Max Temperature 39 °F 53 °F 77 °F (1957)
Min Temperature 33 °F 35 °F 6 °F (1899)
Degree Days  
Heating Degree Days 29 21  
Month to date heating degree days 269 197  
Since 1 July heating degree days 2430 2099  
Cooling Degree Days 0 0  
Month to date cooling degree days 0 0  
Year to date cooling degree days 0 1  
Moisture  
Dew Point 31 °F    
Average Humidity 83    
Maximum Humidity 96    
Minimum Humidity 70    
Precipitation  
Precipitation T in 0.15 in 2.26 in (1939)
Month to date precipitation 4.50 1.37  
Year to date precipitation 7.66 5.35  
Snow  
Snow 0.00 in 0.00 in 3.10 in (2011)
Month to date snowfall 0.3 0.5  
Since 1 July snowfall 0.3 2.6  
Snow Depth 0.00 in    
Sea Level Pressure  
Sea Level Pressure 30.18 in    
Wind  
Wind Speed 7 mph (North)    
Max Wind Speed 16 mph    
Max Gust Speed 22 mph    
Visibility 7 miles    
Events      
T = Trace of Precipitation, MM = Missing Value Source: NWS Daily Summary

Daily Weather History Graph

Daily Weather History Graph

Search for Another Location

Airport:

Trip Planner

Search our weather history database for the weather conditions in past years. The results will help you decide how hot, cold, wet, or windy it might be!

Date:

Astronomy

Feb. 09, 2014 Rise Set
Actual Time 6:51 AM CST 5:36 PM CST
Civil Twilight 6:25 AM CST 6:02 PM CST
Nautical Twilight 5:55 AM CST 6:32 PM CST
Astronomical Twilight 5:26 AM CST 7:02 PM CST
Moon 1:20 PM CST (2/9) 2:53 AM CST (2/9)
Length of Visible Light 11h 37m
Length of Day
10h 44m
Waxing Gibbous, 77% of the Moon is Illuminated
Feb 9
Waxing Gibbous
Feb 14
Full
Feb 22
Last Quarter
Mar 1
New
Mar 8
First Quarter

Hourly Weather History & Observations

Time (CST) Temp. Windchill Dew Point Humidity Pressure Visibility Wind Dir Wind Speed Gust Speed Precip Events Conditions
12:54 AM 36.0 °F 33.3 °F 33.1 °F 89% 30.17 in 6.0 mi West 3.5 mph - N/A   Overcast
1:22 AM 35.6 °F 31.7 °F 33.8 °F 93% 30.16 in 6.0 mi WNW 4.6 mph - N/A   Overcast
1:54 AM 36.0 °F 32.1 °F 33.1 °F 89% 30.16 in 6.0 mi NW 4.6 mph - N/A   Overcast
2:54 AM 35.1 °F 30.1 °F 32.0 °F 89% 30.15 in 6.0 mi NNW 5.8 mph - N/A   Overcast
3:54 AM 35.1 °F - 33.1 °F 92% 30.14 in 4.0 mi Calm Calm - N/A   Overcast
4:18 AM 35.6 °F 30.7 °F 33.8 °F 93% 30.14 in 4.0 mi NW 5.8 mph - N/A   Overcast
4:46 AM 35.6 °F 32.8 °F 33.8 °F 93% 30.15 in 3.0 mi WNW 3.5 mph - 0.00 in   Overcast
4:51 AM 35.6 °F 32.8 °F 33.8 °F 93% 30.15 in 0.5 mi WNW 3.5 mph - 0.00 in   Overcast
4:54 AM 35.1 °F 31.0 °F 33.1 °F 92% 30.16 in 0.5 mi WNW 4.6 mph - N/A   Overcast
5:38 AM 33.8 °F 27.7 °F 32.0 °F 93% 30.16 in 2.0 mi NW 6.9 mph - 0.00 in   Overcast
5:54 AM 34.0 °F 28.8 °F 32.0 °F 92% 30.18 in 2.0 mi NW 5.8 mph - 0.00 in   Overcast
6:54 AM 34.0 °F - 32.0 °F 92% 30.18 in 2.0 mi Calm Calm - N/A   Overcast
7:54 AM 34.0 °F - 32.0 °F 92% 30.17 in 2.0 mi Calm Calm - N/A   Overcast
8:30 AM 35.6 °F 29.9 °F 32.0 °F 87% 30.17 in 2.0 mi NNW 6.9 mph - N/A   Overcast
8:39 AM 35.6 °F 29.2 °F 32.0 °F 87% 30.17 in 7.0 mi North 8.1 mph - N/A   Overcast
8:54 AM 35.1 °F 29.3 °F 32.0 °F 89% 30.19 in 8.0 mi North 6.9 mph - N/A   Overcast
9:54 AM 36.0 °F 30.3 °F 30.9 °F 82% 30.21 in 9.0 mi North 6.9 mph - N/A   Overcast
10:05 AM 35.6 °F 29.9 °F 32.0 °F 87% 30.21 in 10.0 mi NNW 6.9 mph - N/A   Overcast
10:17 AM 35.6 °F 29.9 °F 30.2 °F 81% 30.21 in 10.0 mi NNW 6.9 mph - N/A   Overcast
10:54 AM 37.0 °F 31.6 °F 30.9 °F 79% 30.20 in 10.0 mi North 6.9 mph - N/A   Mostly Cloudy
11:54 AM 37.9 °F 32.7 °F 30.0 °F 73% 30.15 in 10.0 mi North 6.9 mph - N/A   Overcast
12:54 PM 37.9 °F 31.5 °F 30.0 °F 73% 30.18 in 10.0 mi North 9.2 mph - N/A   Overcast
1:54 PM 37.0 °F 33.3 °F 28.9 °F 73% 30.18 in 10.0 mi North 4.6 mph - N/A   Overcast
2:54 PM 37.0 °F 31.0 °F 28.9 °F 73% 30.16 in 10.0 mi NE 8.1 mph - N/A   Overcast
3:54 PM 37.0 °F 31.0 °F 30.0 °F 76% 30.17 in 10.0 mi NNE 8.1 mph - N/A   Overcast
4:54 PM 36.0 °F 30.3 °F 28.9 °F 76% 30.17 in 10.0 mi NE 6.9 mph - N/A   Overcast
5:41 PM 35.6 °F 28.0 °F 28.4 °F 75% 30.18 in 10.0 mi NNE 10.4 mph - N/A   Overcast
5:54 PM 36.0 °F 29.0 °F 28.9 °F 76% 30.19 in 10.0 mi NNE 9.2 mph - N/A   Overcast
6:54 PM 35.1 °F 27.4 °F 28.9 °F 78% 30.19 in 10.0 mi NNE 10.4 mph - N/A   Overcast
7:38 PM 35.6 °F 28.0 °F 28.4 °F 75% 30.19 in 10.0 mi NNE 10.4 mph 19.6 mph N/A   Overcast
7:54 PM 34.0 °F 26.0 °F 28.9 °F 82% 30.22 in 10.0 mi NNE 10.4 mph - N/A   Overcast
8:12 PM 33.8 °F 27.7 °F 28.4 °F 81% 30.20 in 10.0 mi NNE 6.9 mph - N/A   Overcast
8:54 PM 34.0 °F 26.6 °F 28.9 °F 82% 30.20 in 10.0 mi NNE 9.2 mph - N/A   Overcast
9:54 PM 34.0 °F 26.6 °F 28.9 °F 82% 30.21 in 10.0 mi North 9.2 mph - N/A   Overcast
10:54 PM 34.0 °F 25.0 °F 28.0 °F 79% 30.22 in 10.0 mi NNE 12.7 mph - N/A   Overcast
11:54 PM 33.1 °F 22.6 °F 28.9 °F 85% 30.21 in 8.0 mi NNE 16.1 mph 19.6 mph N/A   Overcast